Weather History for EGDR - October, 2013

Change the Weather History Date:

Tuesday, October 1, 2013

  Actual Average Record
Temperature  
Mean Temperature 60 °F -  
Max Temperature 62 °F 56 °F 73 °F (2011)
Min Temperature 59 °F 48 °F 46 °F (2000)
Degree Days  
Heating Degree Days 4    
Growing Degree Days 10 (Base 50)    
Moisture  
Dew Point 60 °F    
Average Humidity 99    
Maximum Humidity 100    
Minimum Humidity 94    
Precipitation  
Precipitation 0.28 in - - ()
Sea Level Pressure  
Sea Level Pressure 29.61 in    
Wind  
Wind Speed 11 mph ()    
Max Wind Speed 21 mph    
Max Gust Speed 29 mph    
Visibility 1.1 miles    
Events Fog , Rain    
Averages and records for this station are not official NWS values.
T = Trace of Precipitation, MM = Missing Value Source: Averaged Metar Reports

Daily Weather History Graph

Daily Weather History Graph

Search for Another Location

Airport or City:

Trip Planner

Search our weather history database for the weather conditions in past years. The results will help you decide how hot, cold, wet, or windy it might be!

Date:

Astronomy

Oct. 01, 2013 Rise Set
Actual Time 7:21 AM BST 6:59 PM BST
Civil Twilight 6:48 AM BST 7:31 PM BST
Nautical Twilight 6:11 AM BST 8:08 PM BST
Astronomical Twilight 5:32 AM BST 8:47 PM BST
Moon 3:23 AM BST (10/1) 5:10 PM BST (10/1)
Length of Visible Light 12h 42m
Length of Day
11h 38m
Waning Crescent, 13% of the Moon is Illuminated
Oct 1
Waning Crescent
Oct 5
New
Oct 12
First Quarter
Oct 19
Full
Oct 27
Last Quarter

Hourly Weather History & Observations

Time (BST) Temp. Dew Point Humidity Pressure Visibility Wind Dir Wind Speed Gust Speed Precip Events Conditions
12:50 AM 60.8 °F 60.8 °F 100% 29.62 in 0.6 mi SSE 11.5 mph - N/A   Light Drizzle
1:50 AM 59.0 °F 59.0 °F 100% 29.62 in 0.2 mi SSE 9.2 mph - N/A Fog Fog
2:50 AM 60.8 °F 60.8 °F 100% 29.62 in 0.3 mi SSE 10.4 mph - N/A Fog Fog
3:50 AM 60 °F 60 °F 100% 29.61 in 0 mi SE 10.4 mph - - Rain Light Drizzle
3:50 AM 60.8 °F 60.8 °F 100% 29.59 in 0.3 mi SE 10.4 mph - N/A   Light Drizzle
4:50 AM 60.8 °F 60.8 °F 100% 29.59 in 0.9 mi SE 10.4 mph - N/A Fog Fog
5:50 AM 60.8 °F 59.0 °F 94% 29.59 in 0.9 mi SE 11.5 mph - N/A   Light Drizzle
6:50 AM 60 °F 60 °F 100% 29.60 in 0 mi SSE 11.5 mph - - Fog Partial Fog
6:50 AM 60.8 °F 60.8 °F 100% 29.59 in 0.2 mi SSE 11.5 mph - N/A Fog Fog
7:50 AM 59.0 °F 59.0 °F 100% 29.59 in 0.1 mi SSE 9.2 mph - N/A Fog Fog
8:50 AM 60.8 °F 60.8 °F 100% 29.59 in 0.1 mi SSE 11.5 mph - N/A Fog Fog
9:29 AM 60.8 °F 60.8 °F 100% 29.62 in 1.6 mi SSE 13.8 mph - N/A   Light Drizzle
9:50 AM 61 °F 61 °F 99% 29.62 in 2 mi SSE 12.7 mph - - Rain Light Rain
9:50 AM 60.8 °F 60.8 °F 100% 29.59 in 2.2 mi SSE 12.7 mph - N/A Rain Light Rain
10:38 AM 60.8 °F 60.8 °F 100% 29.62 in 0.6 mi SSE 13.8 mph - N/A Rain Rain Showers
10:50 AM 60.8 °F 60.8 °F 100% 29.62 in 2.2 mi South 11.5 mph - N/A Rain Rain Showers
11:50 AM 62.6 °F 60.8 °F 94% 29.59 in 2.5 mi SE 6.9 mph - N/A Rain Light Rain Showers
12:50 PM 61 °F 61 °F 99% 29.62 in 3 mi ESE 12.7 mph - - Rain Light Rain
12:50 PM 60.8 °F 60.8 °F 100% 29.62 in 3.1 mi ESE 12.7 mph - N/A Rain Light Rain
1:50 PM 60.8 °F 60.8 °F 100% 29.59 in 2.5 mi SE 20.7 mph - N/A Rain Light Rain Showers
2:50 PM 60.8 °F 60.8 °F 100% 29.59 in 1.2 mi SE 16.1 mph 28.8 mph N/A Rain Light Rain Showers
3:50 PM 61 °F 60 °F 97% 29.60 in 2 mi SE 19.6 mph - - Rain Light Rain Showers
3:50 PM 60.8 °F 60.8 °F 100% 29.59 in 2.5 mi SE 19.6 mph - N/A Rain Light Rain Showers
4:50 PM 60.8 °F 60.8 °F 100% 29.59 in 2.5 mi SE 19.6 mph - N/A   Partly Cloudy
5:50 PM 60.8 °F 59.0 °F 94% 29.59 in 1.2 mi SE 16.1 mph - N/A   Light Drizzle
6:50 PM 60 °F 60 °F 100% 29.62 in 1 mi SSE 11.5 mph - - Rain Light Drizzle
6:50 PM 60.8 °F 60.8 °F 100% 29.59 in 0.7 mi SSE 11.5 mph - N/A   Overcast
7:50 PM 60.8 °F 60.8 °F 100% 29.62 in 0.6 mi South 8.1 mph - N/A   Mostly Cloudy
8:50 PM 60.8 °F 60.8 °F 100% 29.62 in 0.5 mi South 8.1 mph - N/A Fog Patches of Fog
9:50 PM 60 °F 60 °F 100% 29.65 in 0 mi South 6.9 mph - - Fog Patches of Fog
9:50 PM 60.8 °F 60.8 °F 100% 29.62 in 0.5 mi South 6.9 mph - N/A Fog Patches of Fog
10:50 PM 60.8 °F 60.8 °F 100% 29.65 in 1.2 mi South 8.1 mph - N/A   Mostly Cloudy
11:50 PM 60.8 °F 60.8 °F 100% 29.62 in 0.5 mi South 9.2 mph - N/A Fog Patches of Fog